Flag for Brazil Weather past 2 weeks in Santarém, Para, Brazil

Now
82 °F

Passing clouds.


Feels Like: 89 °F
Forecast: N/A
Wind: 5 mph from Northwest

Location: Santarem-Aeroporto

Current Time: Mar 26, 2015 at 7:35:14 PM

Latest Report: Mar 26, 2015 at 7:00 PM


Visibility: N/A

Pressure: 29.80 "Hg

Humidity: 79%

Dew point: 75 °F

Location of SantarémLocation

Historic Weather in Santarém — Graph

°F

Santarém temperature yesterday

Maximum temperature yesterday: 84 °F (at 3:00 PM)
Minimum temperature yesterday: 73 °F (at 12:00 AM)
Average temperature yesterday: 77 °F

Past Weeks' High & Low Weather Summary

 TemperatureHumidityPressure
High88 °F (Mar 13, 3:00 PM)100% (Mar 11, 10:00 PM)30.04 "Hg (Mar 11, 10:00 PM)
Low39 °F (Mar 16, 8:00 AM)22% (Mar 13, 11:00 PM)29.68 "Hg (Mar 13, 4:00 PM)
Average77 °F90%29.86 "Hg
* Reported Mar 11 6:00 PM — Mar 26 6:00 PM, Santarém, Weather by CustomWeather, © 2015

Note: Actual official high and low records may vary slightly from our data, if they occured in-between our weather recording intervals... More about our weather records

Advertising

Santarém weather history for previous 24 hours

 ConditionsComfort  
Time TempWeatherWind HumidityBarometerVisibility
6:00 PM
Thu, Mar 26
84 °FPassing clouds.2 mph74%29.77 "HgN/A
5:00 PM86 °FPassing clouds.3 mph70%29.80 "HgN/A
4:00 PM84 °FScattered clouds.3 mph74%29.80 "HgN/A
3:00 PM84 °FPassing clouds.2 mph79%29.86 "HgN/A
2:00 PM84 °FScattered clouds.2 mph79%29.89 "HgN/A
1:00 PM86 °FScattered clouds.2 mph75%29.92 "HgN/A
12:00 PM82 °FScattered clouds.3 mph84%29.95 "HgN/A
11:00 AM82 °FScattered clouds.7 mph79%29.98 "HgN/A
10:00 AM81 °FScattered clouds.12 mph84%29.98 "HgN/A
9:00 AM79 °FScattered clouds.12 mph89%29.95 "HgN/A
8:00 AM77 °FScattered clouds.9 mph94%29.95 "HgN/A
7:00 AM77 °FPassing clouds.10 mph94%29.92 "HgN/A
6:00 AM73 °FPassing clouds.No wind100%29.89 "HgN/A
5:00 AM73 °FPassing clouds.2 mph100%29.89 "HgN/A
4:00 AM73 °FThundershowers. Passing clouds.No wind94%29.89 "HgN/A
3:00 AM73 °FThundershowers. Passing clouds.3 mph94%29.89 "HgN/A
2:00 AM73 °FThundershowers. Passing clouds.2 mph94%29.89 "HgN/A
1:00 AM73 °FThundershowers. Passing clouds.No wind100%29.92 "HgN/A
12:00 AM73 °FThundershowers. Passing clouds.2 mph94%29.92 "HgN/A
11:00 PM
Wed, Mar 25
75 °FThundershowers. Passing clouds.2 mph94%29.92 "HgN/A
10:00 PM75 °FPassing clouds.No wind94%29.92 "HgN/A
9:00 PM75 °FPassing clouds.1 mph94%29.89 "HgN/A
8:00 PM75 °FPassing clouds.No wind94%29.86 "HgN/A
7:00 PM79 °FPassing clouds.5 mph89%29.83 "HgN/A
Weather by CustomWeather, © 2015

See weather overviewHow to use our weather pages